This is the latest recevied weather packets stored in our database for station/object DB0LS-15. If no packets are shown the sender has not sent any weather packets the latest 10 day(s).
| Time | Temp. | Humidity | Pressure | Rain* | Wind** | Luminosity | Snow |
|---|---|---|---|---|---|---|---|
| 1777720548 | 23.89° C | 35% | 1003.6 hPa | 0 mm | - | - | - |
| 1777719945 | 24.44° C | 34% | 1003.9 hPa | 0 mm | - | - | - |
| 1777719341 | 23.33° C | 35% | 1004 hPa | 0 mm | - | - | - |
| 1777718737 | 23.33° C | 35% | 1004.1 hPa | 0 mm | - | - | - |
| 1777718133 | 22.78° C | 35% | 1004.3 hPa | 0 mm | - | - | - |
| 1777717529 | 23.33° C | 34% | 1004.5 hPa | 0 mm | - | - | - |
| 1777716925 | 22.78° C | 35% | 1004.4 hPa | 0 mm | - | - | - |
| 1777716322 | 22.78° C | 37% | 1004.7 hPa | 0 mm | - | - | - |
| 1777715718 | 22.78° C | 36% | 1004.9 hPa | 0 mm | - | - | - |
| 1777714570 | 22.78° C | 36% | 1005.1 hPa | 0 mm | - | - | - |
| 1777713967 | 22.22° C | 35% | 1005.3 hPa | 0 mm | - | - | - |
| 1777712429 | 22.22° C | 39% | 1005.5 hPa | 0 mm | - | - | - |
| 1777711825 | 21.67° C | 42% | 1005.6 hPa | 0 mm | - | - | - |
| 1777711221 | 21.67° C | 43% | 1005.8 hPa | 0 mm | - | - | - |
| 1777710618 | 21.11° C | 44% | 1005.9 hPa | 0 mm | - | - | - |
| 1777710074 | 21.11° C | 45% | 1005.8 hPa | 0 mm | - | - | - |
| 1777709470 | 20.56° C | 45% | 1006 hPa | 0 mm | - | - | - |
| 1777708867 | 20° C | 45% | 1006 hPa | 0 mm | - | - | - |
| 1777708262 | 19.44° C | 47% | 1006.2 hPa | 0 mm | - | - | - |
| 1777707659 | 19.44° C | 49% | 1006.3 hPa | 0 mm | - | - | - |
| 1777707055 | 18.89° C | 49% | 1006.3 hPa | 0 mm | - | - | - |
| 1777706451 | 17.78° C | 50% | 1006.4 hPa | 0 mm | - | - | - |
| 1777705847 | 17.78° C | 51% | 1006.4 hPa | 0 mm | - | - | - |
| 1777705243 | 17.22° C | 53% | 1006.5 hPa | 0 mm | - | - | - |
| 1777704639 | 16.67° C | 54% | 1006.5 hPa | 0 mm | - | - | - |
* Rain latest hour (hover to see other rain measurements)
** Current wind speed in m/s (hover to see current wind gust speed)